TIME,DELAY(SENSOR),PRES,T(CTD),SAL,OXYGEN,RAWTEMP,T(OPTODE),TCPHASE,TURBIDITY,TURBIDITY_GAIN,FLUOR,BETA,CDOM,ED411.5,ED443.8,ED489.6,PAR,COMP,TILT,TILTY(TILT),CHECK
1341329931,6470,218.4600067138672000,5.2698998451232910,34.9967994689941400,358.3440856933594000,643.8444824218750000,5.2499518394470215,32.3847007751464840,40,3,49,115,62,2147636274,2147398152,2147290952,2148319931,1556,0,-4,33166
1341329992,6467,214.9400024414062500,5.2737002372741700,34.9973983764648440,358.5556945800781000,643.7122802734375000,5.2542400360107420,32.3756408691406250,16,3,49,122,62,2147637782,2147395025,2147290929,2148322660,1359,0,-4,11890
1341330053,6467,211.3800048828125000,5.2821002006530760,34.9973983764648440,358.5940856933594000,643.5034790039062000,5.2610130310058590,32.3705101013183600,16,3,50,123,64,2147638249,2147395894,2147291272,2148324009,1109,0,-4,17052
1341330114,6468,207.8399963378906200,5.2870001792907715,34.9973983764648440,358.6445922851562500,643.3405761718750000,5.2662940025329590,32.3663711547851560,16,3,50,114,62,2147634865,2147393169,2147297352,2148323780,775,0,-4,1303
1341330175,6469,204.3500061035156200,5.2884001731872560,34.9986991882324200,358.6495971679687500,643.2542724609375000,5.2690939903259280,32.3642616271972660,16,3,49,121,62,2147635515,2147394051,2147297321,2148323533,325,0,-4,29566
1341330236,6468,200.9299926757812500,5.2933001518249510,34.9987983703613300,358.7023925781250000,643.1251220703125000,5.2732849121093750,32.3605384826660160,15,3,50,118,62,2147634042,2147394472,2147296712,2148323396,26,0,-4,56938
1341330297,6467,197.4900054931640600,5.2992000579833980,34.9987983703613300,358.5640869140625000,642.9113769531250000,5.2802138328552250,32.3610610961914060,16,3,50,123,62,2147634994,2147397087,2147298884,2148323697,3268,0,-4,18077
1341330358,6446,194.1799926757812500,5.3070001602172850,35.0000000000000000,358.5657958984375000,642.6708984375000000,5.2880120277404785,32.3565788269043000,16,3,49,120,62,2147637174,2147397883,2147301539,2148325279,2993,0,-4,11348
1341330419,6467,190.8999938964843800,5.3123998641967770,34.9999008178710940,358.6177978515625000,642.5330200195312000,5.2924818992614750,32.3526992797851560,16,3,50,123,63,2147638550,2147397398,2147307071,2148325329,2817,0,-4,32298
1341330480,6468,187.6799926757812500,5.3175997734069820,35.0000000000000000,358.7572021484375000,642.3665771484375000,5.2978777885437010,32.3450889587402340,18,3,50,118,62,2147635501,2147397691,2147304754,2148323025,2589,0,-4,53727
1341330544,6467,184.3500061035156200,5.3211998939514160,35.0004997253418000,358.8861083984375000,642.2382812500000000,5.3020381927490230,32.3386497497558600,14,3,49,122,62,2147635665,2147398916,2147305389,2148322971,2432,0,-4,48517
1341330605,6467,181.2200012207031200,5.3267002105712890,35.0004997253418000,358.8169860839844000,642.0241699218750000,5.3089771270751950,32.3371009826660160,16,3,50,120,62,2147636836,2147397732,2147306628,2148322934,2275,0,-4,64902
1341330668,6466,178.0899963378906200,5.3312001228332520,35.0013008117675800,358.7258911132812500,641.9127197265625000,5.3125920295715330,32.3381309509277340,16,3,50,116,62,2147636909,2147396813,2147308653,2148321915,2150,0,-4,55633
1341330729,6467,175.1199951171875000,5.3345999717712400,35.0007019042968750,358.8765869140625000,641.8436889648438000,5.3148288726806640,32.3322296142578100,16,3,50,129,62,2147632539,2147400008,2147314518,2148326573,1980,0,-4,33941
1341330792,6469,172.0899963378906200,5.3365001678466800,35.0009994506835940,358.9744873046875000,641.7661743164062000,5.3173432350158690,32.3276481628418000,11,3,50,121,62,2147635954,2147398130,2147315468,2148322436,1780,0,-4,4213
1341330853,6469,169.2100067138672000,5.3410000801086430,35.0010986328125000,358.9556884765625000,641.6362304687500000,5.3215560913085940,32.3256797790527340,16,3,50,126,62,2147635400,2147398349,2147322728,2148325682,1652,0,-4,58160
1341330916,6467,166.2500000000000000,5.3471999168396000,35.0013999938964840,358.9132995605469000,641.4671020507812000,5.3270359039306640,32.3242111206054700,11,3,50,134,62,2147635469,2147399272,2147320726,2148324301,1503,0,-4,48571
1341330981,6467,163.2700042724609400,5.3531999588012695,35.0018005371093750,358.8981018066406000,641.2141723632812000,5.3352298736572270,32.3202896118164060,16,3,48,135,62,2147635387,2147399775,2147316365,2148326074,1231,0,-4,14032
1341331044,6469,160.4499969482422000,5.3590002059936520,35.0014991760253900,358.9601135253906000,641.1121826171875000,5.3385372161865230,32.3166007995605500,16,3,50,135,62,2147637489,2147400246,2147331432,2148331035,970,0,-4,48907
1341331105,6468,157.7500000000000000,5.3596000671386720,35.0019989013671900,358.8528137207031000,641.0333862304688000,5.3410911560058590,32.3185005187988300,16,3,50,123,62,2147637261,2147399693,2147329837,2148327747,629,0,-4,59822
1341331168,6467,155.0399932861328000,5.3674998283386230,35.0019989013671900,358.7929077148437500,640.8397827148438000,5.3473639488220215,32.3168907165527340,16,3,50,134,64,2147638907,2147401517,2147334161,2148327570,350,0,-4,29863
1341331229,6467,152.4600067138672000,5.3751997947692870,35.0022010803222660,358.7933044433594000,640.6237182617188000,5.3543682098388670,32.3132209777832000,23,3,50,125,62,2147637951,2147402143,2147346363,2148327373,3467,0,-4,7020
1341331292,6468,149.8099975585937500,5.3807997703552250,35.0028991699218750,358.7466125488281000,640.4365844726562000,5.3604278564453125,32.3113517761230500,10,3,50,128,62,2147639030,2147402138,2147351103,2148328196,3139,0,-4,58564
1341331353,6467,147.3200073242187500,5.3843998908996580,35.0029983520507800,358.6637878417969000,640.2902832031250000,5.3651700019836430,32.3112602233886700,11,3,50,126,62,2147637091,2147405403,2147368863,2148328776,2881,0,-4,8415
1341331416,6467,144.8000030517578000,5.3916001319885250,35.0028991699218750,358.5343017578125000,640.0551757812500000,5.3727860450744630,32.3112716674804700,16,3,51,138,62,2147635450,2147405673,2147374669,2148331588,2710,0,-4,57863
1341331477,6467,142.4499969482422000,5.4050002098083500,35.0037002563476560,358.2016906738281000,639.6599731445312000,5.3855900764465330,32.3150405883789060,56,3,50,125,63,2147639341,2147407702,2147382564,2148332196,2449,0,-4,30628
1341331568,6466,138.2700042724609400,5.4281001091003420,35.0037002563476560,357.5474853515625000,638.9882812500000000,5.4073448181152340,32.3241691589355500,24,3,50,126,62,2147639730,2147412315,2147394070,2148337394,2167,0,-4,39561
1341331629,6467,134.7500000000000000,5.4327001571655270,35.0037994384765600,357.2669982910156000,638.8342285156250000,5.4123330116271970,32.3304710388183600,16,3,50,132,62,2147638875,2147408401,2147412090,2148335707,1932,0,-4,46376
1341331692,6467,131.0200042724609400,5.4458999633789060,35.0049018859863300,357.2001037597656000,638.3986206054688000,5.4264411926269530,32.3250808715820300,16,3,50,132,62,2147637147,2147414952,2147424516,2148339853,1721,0,-4,47500
1341331753,6467,127.4199981689453100,5.4539999961853030,35.0054016113281250,356.9953918457031000,638.1649169921875000,5.4340062141418460,32.3275184631347660,16,3,50,134,62,2147638221,2147417439,2147444799,2148339588,1526,0,-4,4185
1341331816,6466,123.7300033569336000,5.4674000740051270,35.0061988830566400,356.7258911132812500,637.6516113281250000,5.4506239891052250,32.3273315429687500,16,3,52,131,62,2147637599,2147423231,2147497306,2148350120,1278,0,-4,20976
1341331877,6468,120.1800003051757800,5.4907999038696290,35.0061988830566400,356.3778076171875000,636.9600219726562000,5.4730091094970700,32.3264083862304700,16,3,50,133,62,2147638948,2147424465,2147485562,2148349352,979,0,-4,22972
1341331940,6468,116.5699996948242200,5.5205001831054690,35.0056991577148440,356.0729980468750000,635.9926147460938000,5.5043110847473145,32.3192100524902340,16,3,51,136,62,2147636978,2147430738,2147521092,2148351437,425,0,-4,62585
1341332001,6467,113.1100006103515600,5.5633001327514650,35.0066986083984400,356.0939025878906000,634.8203735351562000,5.5422291755676270,32.2978591918945300,16,3,52,137,64,2147640310,2147435569,2147550728,2148357462,12,0,-4,4671
1341332064,6468,109.5699996948242200,5.6065998077392580,35.0057983398437500,356.4431152343750000,633.5805053710938000,5.5823187828063965,32.2648200988769500,23,3,53,221,62,2147638390,2147438614,2147590148,2148364808,3199,0,-4,11547
1341332125,6467,106.2200012207031200,5.6310000419616700,35.0059013366699200,356.7195129394531000,632.6312255859375000,5.6130070686340330,32.2389793395996100,14,3,52,192,62,2147643154,2147445800,2147606651,2148367340,2983,0,-4,6827
1341332188,6467,102.6200027465820300,5.6589999198913570,35.0060005187988300,357.4594116210937500,631.7982788085938000,5.6399188041687010,32.2003707885742200,16,3,54,140,62,2147640214,2147464891,2147685174,2148379620,2783,0,-4,28572
1341332249,6468,99.0699996948242200,5.6838002204895020,35.0063018798828100,357.7979125976562500,630.9370117187500000,5.6677441596984860,32.1745796203613300,14,3,54,166,63,2147647391,2147472109,2147722312,2148388429,2435,0,-4,56848
1341332312,6466,95.3399963378906200,5.7666997909545900,35.0041007995605500,358.5946960449219000,628.6185302734375000,5.7426052093505860,32.1083793640136700,16,3,55,165,62,2147647574,2147484059,2147776913,2148397082,2324,0,-4,35804
1341332373,6467,91.7099990844726600,5.8049001693725590,35.0045013427734400,360.3301086425781000,627.4277954101562000,5.7810292243957520,32.0318794250488300,16,3,56,151,61,2147651391,2147504776,2147878266,2148411807,1866,0,-4,49433
1341332436,6466,87.8399963378906200,5.9001998901367190,35.0015983581543000,362.4749145507812500,624.3820800781250000,5.8792500495910645,31.9109592437744140,16,3,60,164,62,2147656241,2147534920,2148014285,2148439857,1565,0,-4,30888
1341332497,6469,84.0299987792968800,5.9432997703552250,35.0009994506835940,365.5068054199219000,623.1085205078125000,5.9202961921691895,31.7933692932128900,18,3,62,192,62,2147664754,2147572392,2148144466,2148463048,1121,0,-4,5123
1341332584,6469,78.9000015258789000,5.9802999496459960,35.0004997253418000,368.1530151367187500,621.9025878906250000,5.9591431617736820,31.6901206970214840,18,3,68,233,62,2147678692,2147646121,2148459405,2148521252,746,0,-4,41044
1341332645,6468,76.1900024414062500,5.9910998344421390,35.0000000000000000,368.8609008789062500,621.5123291015625000,5.9717121124267580,31.6613292694091800,17,3,68,166,62,2147683744,2147650024,2148414280,2148517193,185,0,-4,24432
1341332708,6467,73.5199966430664000,6.0155000686645510,35.0003013610839840,369.1543884277344000,620.8369750976562000,5.9934558868408200,31.6407604217529300,19,3,70,166,62,2147689302,2147693549,2148592438,2148558070,3528,0,-4,44097
1341332769,6467,70.9599990844726600,6.0275998115539550,35.0004005432128900,369.3995971679687500,620.4218750000000000,6.0068230628967285,31.6260299682617200,17,3,73,189,62,2147705627,2147731309,2148703286,2148584091,3109,0,-4,30167
1341332832,6468,68.2600021362304700,6.0542998313903810,35.0009002685546900,369.2467956542969000,619.6281738281250000,6.0323700904846190,31.6172790527343750,16,3,74,162,62,2147715446,2147775185,2148842998,2148612214,2955,0,-4,33048
1341332893,6467,65.6800003051757800,6.0693001747131350,35.0022010803222660,369.2510070800781000,619.1121215820312000,6.0489788055419920,31.6081199645996100,17,3,78,171,62,2147743410,2147858458,2149127670,2148682911,2815,0,-4,34561
1341332956,6468,63.0900001525878900,6.0816001892089840,35.0023994445800800,369.5859069824219000,618.7130126953125000,6.0618228912353520,31.5911293029785160,17,3,84,212,62,2147766070,2147948415,2149411588,2148749576,2581,0,-4,47316
1341333017,6468,60.6500015258789060,6.0953998565673830,35.0022010803222660,369.6510925292969000,618.2958984375000000,6.0752429962158200,31.5818901062011720,19,3,90,197,62,2147815666,2148098825,2149924045,2148860850,2480,0,-4,23507
1341333080,6468,58.2299995422363300,6.1033000946044920,35.0029983520507800,369.8304138183594000,617.9791259765625000,6.0854339599609375,31.5709705352783200,21,3,90,250,62,2147850582,2148192493,2150181041,2148932355,2359,0,-4,4536
1341333141,6469,55.9300003051757800,6.1272001266479490,35.0029983520507800,369.8840026855469000,617.2954711914062000,6.1074199676513670,31.5576591491699220,29,3,102,220,62,2147950527,2148521133,2151304745,2149192703,2349,0,-4,27711
1341333228,6469,52.2000007629394500,6.1598000526428220,35.0027008056640600,369.9414062500000000,616.2216796875000000,6.1419510841369630,31.5374107360839840,23,3,113,207,62,2148062875,2148741769,2151762857,2149345695,2218,0,-4,45827
1341333289,6469,48.9099998474121100,6.2262001037597660,34.9990005493164060,369.1008911132812500,614.3170166015625000,6.2031750679016110,31.5311107635498050,28,3,146,247,64,2148294902,2149256059,2153129411,2149725403,1988,0,-4,43792
1341333352,6469,45.7200012207031250,6.2614998817443850,34.9989013671875000,369.0964965820312500,613.1719970703125000,6.2399578094482420,31.5114402770996100,90,3,172,280,64,2148472831,2149540991,2153639437,2149911926,1817,0,-4,682
1341333413,6470,42.6199989318847660,6.4180998802185060,34.9949989318847660,369.2579040527344000,608.5142822265625000,6.3894619941711430,31.4276695251464840,36,3,230,392,65,2148685188,2149755359,2153655323,2149988479,1333,0,-4,35678
1341333476,6472,39.4700012207031250,6.5833001136779785,34.9943008422851560,369.6086120605469000,601.9575195312500000,6.5995640754699710,31.3067398071289060,42,3,338,431,64,2149297188,2150809732,2155922866,2150662847,1661,0,-4,17526
1341333537,6470,36.6699981689453100,6.7785000801086430,34.9900016784668000,372.6393127441406000,597.6657104492188000,6.7368640899658200,31.1423091888427730,67,3,410,497,63,2150520205,2152919199,2160335963,2151989782,1175,0,-4,55152
1341333600,6471,33.8800010681152340,6.9187002182006840,34.9897994995117200,375.4035949707031000,592.9478149414062000,6.8875942230224610,30.9807090759277340,77,3,499,657,64,2153749279,2158368850,2171660790,2155410454,1146,0,-4,10736
1341333661,6470,31.3999996185302730,7.1545000076293945,34.9822006225585940,378.6398010253906000,585.6525268554688000,7.1202597618103030,30.7641792297363280,122,3,597,982,65,2155599533,2160422025,2173171030,2156023935,1392,0,-4,26209
1341333724,6470,29.3600006103515620,7.5191001892089840,34.9771995544433600,385.0040893554687500,575.8294067382812000,7.4327740669250490,30.4179000854492200,118,3,489,888,64,2159825028,2166465462,2182651163,2158991395,853,0,-4,56059
1341333785,6471,27.8400001525878900,7.7994999885559080,34.9767990112304700,390.4158020019531000,566.1251220703125000,7.7406640052795410,30.1074104309082030,111,3,364,792,62,2163766198,2171494051,2189454148,2161319053,303,0,-4,61171
1341333875,6471,25.1599998474121100,8.1780004501342770,34.9739990234375000,398.8594970703125000,553.5640869140625000,8.1379756927490230,29.6730098724365230,109,3,265,816,60,2177376835,2188591002,2212792996,2169591652,73,0,-4,20599
1341333936,6470,22.0599994659423830,8.4204998016357420,34.9766998291015600,402.3472900390625000,545.1690063476562000,8.4027786254882810,29.4472904205322270,111,3,201,880,62,2177396881,2184404182,2199099181,2166095414,2831,0,-4,27108
1341333999,6470,17.9899997711181640,8.8943996429443360,34.9766006469726560,402.1578063964844000,529.9785156250000000,8.8804798126220700,29.2213096618652340,101,3,164,775,59,2188629955,2195774596,2210692306,2171544410,3029,0,-4,23738
1341334060,6469,14.4399995803833000,9.2939996719360350,34.9677009582519500,400.3190002441406000,518.6088256835938000,9.2368488311767580,29.1008205413818360,108,3,143,737,57,2235193915,2251306385,2282466051,2201211844,3468,0,-4,49054
1341334123,6469,12.2299995422363280,10.1260995864868160,34.9701995849609400,392.1270141601562500,494.4999084472656000,9.9893693923950200,28.9709091186523440,89,3,110,644,59,2237347990,2250364379,2276668515,2200889910,2965,0,-4,52086
1341334261,6471,10.0799999237060550,10.7512998580932620,34.9824981689453100,376.6856994628906000,471.4106140136719000,10.7063302993774410,29.0747890472412100,84,3,112,598,57,2225099382,2231718381,2247021087,2191409983,1985,0,-7,28450
1341334334,6471,7.4899997711181640,10.9365997314453120,34.9934997558593750,370.6813964843750000,463.9330139160156000,10.9377899169921880,29.1428909301757800,80,3,106,633,57,2232627592,2237509019,2249982902,2195958537,1884,4,-5,14553
1341334404,6468,4.1300001144409180,12.1234998703002930,34.9814987182617200,359.1527099609375000,427.5917968750000000,12.0580501556396480,28.9741706848144530,79,3,94,579,58,2277514993,2286076946,2304589225,2233838152,1606,1,-7,18830
1341334463,6470,2.9300000667572020,0.0000000000000000,0.0000000000000000,357.1435852050781000,422.2980041503906000,12.2206497192382810,28.9616794586181640,80,3,85,525,53,2323571948,2336734636,2362850253,2276743359,1452,6,-6,58823
1341334497,6469,0.6000000238418579,0.0000000000000000,0.0000000000000000,356.9101867675781000,421.6185913085937500,12.2415103912353520,28.9593296051025400,80,3,74,525,50,2480839624,2512603112,2561103419,2434315469,889,-15,14,63370
